Weather History for MMAA - December, 2012

Change the Weather History Date:

Saturday, December 8, 2012

  Actual Average Record
Temperature  
Mean Temperature 80 °F -  
Max Temperature 90 °F 89 °F 92 °F (2014)
Min Temperature 69 °F 71 °F 64 °F (1997)
Cooling Degree Days 14    
Growing Degree Days 30 (Base 50)    
Moisture  
Dew Point 74 °F    
Average Humidity 77    
Maximum Humidity 91    
Minimum Humidity 50    
Precipitation  
Precipitation 0.00 in 0.02 in - ()
Sea Level Pressure  
Sea Level Pressure 29.84 in    
Wind  
Wind Speed 2 mph ()    
Max Wind Speed 9 mph    
Max Gust Speed -    
Visibility 7.1 miles    
Events      
Averages and records for this station are not official NWS values.
T = Trace of Precipitation, MM = Missing Value Source: Averaged Metar Reports

Daily Weather History Graph

Daily Weather History Graph

Search for Another Location

Airport or City:

Trip Planner

Search our weather history database for the weather conditions in past years. The results will help you decide how hot, cold, wet, or windy it might be!

Date:

Astronomy

Dec. 08, 2012 Rise Set
Actual Time 6:56 AM CST 6:06 PM CST
Civil Twilight 6:32 AM CST 6:29 PM CST
Nautical Twilight 6:06 AM CST 6:56 PM CST
Astronomical Twilight 5:39 AM CST 7:22 PM CST
Moon 2:00 AM CST (12/8) 2:04 PM CST (12/8)
Length of Visible Light 11h 56m
Length of Day
11h 09m
Waning Crescent, 28% of the Moon is Illuminated
Dec 8
Waning Crescent
Dec 13
New
Dec 19
First Quarter
Dec 28
Full
Jan 4
Last Quarter

Hourly Weather History & Observations

Time (CST) Temp. Heat Index Dew Point Humidity Pressure Visibility Wind Dir Wind Speed Gust Speed Precip Events Conditions
12:45 AM 78.8 °F - 73.4 °F 83% 29.83 in 6.0 mi Calm Calm - N/A   Mostly Cloudy
1:45 AM 78.8 °F - 73.4 °F 83% 29.83 in 6.0 mi Calm Calm - N/A   Mostly Cloudy
2:45 AM 78.8 °F - 73.4 °F 83% 29.55 in 6.0 mi Calm Calm - N/A   Mostly Cloudy
3:45 AM 77.0 °F - 73.4 °F 89% 29.82 in 6.0 mi Calm Calm - N/A   Scattered Clouds
5:08 AM 77.0 °F - 73.4 °F 89% 29.82 in 6.0 mi Calm Calm - N/A   Scattered Clouds
5:45 AM 77.0 °F - 73.4 °F 89% 29.83 in 6.0 mi Calm Calm - N/A   Scattered Clouds
5:50 AM 71 °F - 68 °F 87% 29.84 in 6 mi NNE 4.5 mph - -   Clear
6:45 AM 75.2 °F - 71.6 °F 89% 29.85 in 6.0 mi Calm Calm - N/A   Clear
7:43 AM 75.2 °F - 71.6 °F 89% 29.87 in 7.0 mi Calm Calm - N/A   Clear
8:44 AM 78.8 °F - 73.4 °F 83% 29.90 in 7.0 mi Calm Calm - N/A   Clear
8:50 AM 76 °F - 69 °F 73% 29.89 in 12 mi SW 4.5 mph - -   Clear
9:42 AM 82.4 °F 89.5 °F 75.2 °F 79% 29.91 in 7.0 mi Calm Calm - N/A   Clear
10:42 AM 86.0 °F 96.9 °F 77.0 °F 74% 29.90 in 7.0 mi Calm Calm - N/A   Clear
11:44 AM 89.6 °F 99.8 °F 75.2 °F 62% 29.88 in 8.0 mi West 5.8 mph - N/A   Scattered Clouds
11:50 AM 87 °F - 71 °F 50% 29.88 in 12 mi SSE 2.2 mph - -   Clear
12:45 PM 89.6 °F 99.8 °F 75.2 °F 62% 29.86 in 7.0 mi SSW 6.9 mph - N/A   Scattered Clouds
1:45 PM 91.4 °F 102.5 °F 75.2 °F 59% 29.84 in 7.0 mi WSW 6.9 mph - N/A   Scattered Clouds
2:46 PM 91.4 °F 102.5 °F 75.2 °F 59% 29.77 in 7.0 mi WSW 8.1 mph - N/A   Scattered Clouds
2:50 PM 86 °F - 73 °F 58% 29.82 in 12 mi SSE 4.5 mph - -   Scattered Clouds
3:42 PM 91.4 °F 102.5 °F 75.2 °F 59% 29.81 in 8.0 mi WSW 6.9 mph - N/A   Clear
4:42 PM 87.8 °F 97.6 °F 75.2 °F 66% 29.82 in 6.0 mi WSW 9.2 mph - N/A   Clear
5:42 PM 84.2 °F 92.3 °F 75.2 °F 74% 29.82 in 5.0 mi WSW 9.2 mph - N/A   Clear
5:50 PM 83 °F - 76 °F 74% 29.82 in 12 mi West 2.2 mph - -   Scattered Clouds
6:42 PM 82.4 °F 88.2 °F 73.4 °F 74% 29.83 in 5.0 mi Calm Calm - N/A   Clear
7:42 PM 82.4 °F 88.2 °F 73.4 °F 74% 29.85 in 5.0 mi Calm Calm - N/A   Clear
8:42 PM 80.6 °F 85.4 °F 73.4 °F 79% 29.83 in 5.0 mi Calm Calm - N/A   Clear
8:50 PM 77 °F - 73 °F 85% 29.88 in 6 mi WNW 2.2 mph - -   Scattered Clouds
9:42 PM 78.8 °F - 73.4 °F 83% 29.87 in 7.0 mi Calm Calm - N/A   Clear
10:45 PM 77.0 °F - 73.4 °F 89% 29.88 in 7.0 mi Calm Calm - N/A   Clear
11:45 PM 77.0 °F - 73.4 °F 89% 29.85 in 7.0 mi Calm Calm - N/A   Clear
11:50 PM 75 °F - 73 °F 91% 29.88 in 6 mi NNW 2.2 mph - -   Scattered Clouds